User: anonymous   Login
Location: St. Louis
(38.6270°N, 90.1994°W)
Time: 07:27:47
(UTC-06:00)
Language:

SR - Orbit

View from above orbital plane
View from above orbital plane
View from above satellite
View from above satellite

Ground track
Ground track

The orbit data is extracted from the following two-line orbital elements,

1    46U 60007B   21343.22192253  .00000029  00000-0  28927-4 0  9995
2    46  66.6916  27.8666 0202371  88.7377 273.6906 14.49479374217326
Epoch (UTC): 09 December 2021 05:19:34
Eccentricity: 0.0202371
inclination: 66.6916°
perigee height: 583 km
apogee height: 871 km
right ascension of ascending node: 27.8666°
argument of perigee: 88.7377°
revolutions per day: 14.49479374
mean anomaly at epoch: 273.6906°
orbit number at epoch: 21732

The dashed part of the orbit path shows where the satellite is in the earth's shadow,  

DLR